EA5DHO-13 Weather Reports


Display with metric or nautical units.
time (UTC)temp
F
wind
direction
speed
MPH
gust
MPH
rain 1hr
in
rain 24hr
in
rain mn
in
humidity
%
barometer
mb
20260510193435 69 255 2.0 4.0 0.00 0.01 0.01 56 1014.5
20260510192426 69 298 3.0 7.0 0.00 0.01 0.01 56 1014.3
20260510191422 70 270 2.0 4.0 0.00 0.01 0.01 55 1014.4
20260510190513 70 0.0 2.0 0.00 0.01 0.01 54 1014.1
20260510185510 70 309 3.0 6.0 0.00 0.01 0.01 54 1014.0
20260510184501 71 315 8.0 11.0 0.00 0.01 0.01 53 1014.1
20260510183458 73 265 4.0 16.0 0.00 0.01 0.01 55 1013.8
20260510182509 72 293 7.0 17.0 0.00 0.01 0.01 57 1013.7
20260510181446 72 263 11.0 15.0 0.00 0.01 0.01 55 1013.4
20260510180437 72 293 8.0 14.0 0.00 0.01 0.01 60 1013.5
20260510175433 73 286 5.0 9.0 0.00 0.01 0.01 64 1013.5
20260510174424 73 304 2.0 4.0 0.00 0.01 0.01 72 1013.4
20260510173422 72 338 2.0 4.0 0.00 0.01 0.01 75 1013.3
20260510172532 72 338 5.0 9.0 0.00 0.01 0.01 73 1013.2
20260510171510 72 338 1.0 2.0 0.00 0.01 0.01 71 1012.7
20260510170459 72 272 2.0 4.0 0.00 0.01 0.01 68 1012.7
20260510165458 72 288 3.0 4.0 0.00 0.01 0.01 68 1012.8
20260510164447 72 158 1.0 4.0 0.00 0.01 0.01 67 1012.6
20260510163438 72 101 4.0 6.0 0.00 0.01 0.01 69 1012.6
20260510162435 71 105 8.0 15.0 0.00 0.01 0.01 70 1012.5
20260510161426 72 177 7.0 11.0 0.00 0.01 0.01 68 1012.6
20260510160445 73 68 4.0 8.0 0.00 0.01 0.01 67 1012.6
20260510155515 71 106 8.0 13.0 0.00 0.01 0.01 70 1012.7
20260510154510 71 90 9.0 14.0 0.00 0.01 0.01 70 1012.8
20260510153501 72 43 6.0 11.0 0.00 0.01 0.01 66 1012.6
20260510152518 72 186 8.0 15.0 0.00 0.01 0.01 61 1012.7
20260510151509 72 109 5.0 15.0 0.00 0.01 0.01 54 1012.8
20260510150447 71 107 12.0 22.0 0.00 0.01 0.01 53 1013.0
20260510145437 72 90 9.0 18.0 0.00 0.01 0.01 56 1013.3
20260510144435 73 90 8.0 17.0 0.00 0.01 0.01 58 1013.3
20260510143425 72 80 10.0 18.0 0.00 0.01 0.01 56 1013.3
20260510142443 74 158 6.0 13.0 0.00 0.01 0.01 50 1013.4
20260510141514 73 113 10.0 20.0 0.00 0.01 0.01 52 1013.6
20260510140511 73 123 12.0 20.0 0.00 0.01 0.01 53 1013.7
20260510135500 74 180 9.0 13.0 0.00 0.01 0.01 54 1013.8
20260510134457 75 150 4.0 14.0 0.00 0.01 0.01 54 1013.9
20260510133448 73 45 8.0 14.0 0.00 0.01 0.01 54 1014.1
20260510132504 73 21 7.0 17.0 0.00 0.01 0.01 55 1014.3
20260510131457 74 304 7.0 14.0 0.00 0.01 0.01 54 1014.5
20260510130432 73 152 5.0 11.0 0.00 0.01 0.01 57 1014.5
20260510125503 74 189 8.0 16.0 0.00 0.01 0.01 57 1014.4
20260510124522 76 171 7.0 11.0 0.00 0.01 0.01 52 1014.5
20260510123531 76 161 5.0 9.0 0.00 0.02 0.01 54 1014.5
20260510122502 77 137 2.0 7.0 0.00 0.02 0.01 51 1014.6
20260510121520 74 207 4.0 9.0 0.00 0.04 0.01 55 1014.6
20260510120450 74 180 4.0 6.0 0.00 0.06 0.01 56 1014.9
20260510115448 75 100 3.0 6.0 0.00 0.08 0.01 56 1015.0
20260510114439 74 206 3.0 7.0 0.00 0.09 0.01 55 1015.3
20260510113454 73 243 6.0 9.0 0.00 0.11 0.01 56 1015.4
20260510112427 72 84 4.0 7.0 0.00 0.13 0.01 61 1015.3
20260510111422 73 331 3.0 9.0 0.00 0.15 0.01 58 1015.7
20260510110513 73 217 3.0 8.0 0.00 0.17 0.01 56 1015.6
20260510105510 74 168 3.0 7.0 0.00 0.20 0.01 50 1015.5
20260510104501 73 248 3.0 6.0 0.00 0.22 0.01 52 1015.8
20260510103457 73 252 2.0 8.0 0.00 0.25 0.01 54 1016.0
20260510102449 72 248 1.0 2.0 0.00 0.26 0.01 55 1015.9
20260510101445 72 95 5.0 7.0 0.00 0.27 0.01 55 1016.0
20260510100437 70 248 5.0 8.0 0.00 0.28 0.01 58 1016.1
20260510095434 70 275 6.0 9.0 0.00 0.33 0.01 59 1016.2
20260510094425 70 270 1.0 2.0 0.00 0.35 0.01 61 1016.3
20260510093422 69 156 2.0 4.0 0.00 0.38 0.01 63 1016.2
20260510092513 68 261 4.0 6.0 0.00 0.41 0.01 64 1016.2
20260510091508 68 251 4.0 6.0 0.00 0.45 0.01 64 1016.2
20260510090501 68 219 2.0 4.0 0.00 0.51 0.01 64 1016.2
20260510085458 66 270 3.0 4.0 0.00 0.53 0.01 67 1016.2
20260510084447 66 253 3.0 6.0 0.00 0.56 0.01 71 1016.4
20260510083439 65 248 3.0 6.0 0.00 0.59 0.01 72 1016.4
20260510082436 64 174 1.0 4.0 0.00 0.64 0.01 73 1016.4
20260510081433 64 225 3.0 4.0 0.00 0.67 0.01 74 1016.6
20260510080458 63 211 5.0 7.0 0.00 0.69 0.01 74 1016.6
20260510075510 63 256 4.0 6.0 0.00 0.70 0.01 76 1016.6
20260510074446 63 232 3.0 4.0 0.00 0.70 0.01 76 1016.6
20260510073437 62 231 3.0 4.0 0.00 0.70 0.01 77 1016.6
20260510072434 62 248 4.0 7.0 0.00 0.70 0.01 78 1016.5
20260510071446 61 248 3.0 6.0 0.00 0.70 0.01 78 1016.4
20260510070421 61 248 3.0 6.0 0.00 0.70 0.01 79 1016.4
20260510065512 61 238 4.0 8.0 0.00 0.70 0.01 79 1016.3
20260510064509 61 264 2.0 4.0 0.00 0.70 0.01 81 1016.0
20260510063601 60 270 2.0 4.0 0.00 0.70 0.01 82 1016.0
20260510062457 60 237 3.0 6.0 0.00 0.70 0.01 82 1016.0
20260510061424 60 254 4.0 7.0 0.00 0.70 0.01 83 1016.0
20260510060419 59 248 2.0 4.0 0.00 0.70 0.01 84 1015.7
20260510055417 58 242 4.0 6.0 0.00 0.70 0.01 86 1015.7
20260510054553 58 248 3.0 4.0 0.00 0.70 0.01 88 1015.7
20260510053509 58 158 6.0 7.0 0.00 0.70 0.01 89 1015.5
20260510052507 57 248 4.0 7.0 0.00 0.70 0.01 92 1015.4
20260510051503 56 232 4.0 7.0 0.01 0.70 0.01 94 1015.4
20260510050521 56 232 5.0 7.0 0.01 0.70 0.01 95 1015.3
20260510045519 57 248 2.0 4.0 0.01 0.70 0.01 96 1015.4
20260510044514 57 248 2.0 2.0 0.01 0.70 0.01 96 1015.3
20260510043450 57 225 2.0 2.0 0.01 0.70 0.01 96 1015.3
20260510042447 57 0.0 0.0 0.01 0.70 0.01 96 1015.2
20260510041443 57 218 2.0 4.0 0.00 0.69 0.00 96 1015.3
20260510040441 57 270 2.0 2.0 0.00 0.69 0.00 95 1015.3
20260510035437 57 270 2.0 4.0 0.00 0.69 0.00 95 1015.2
20260510034434 58 248 2.0 2.0 0.00 0.69 0.00 95 1015.3
20260510033432 58 0.0 0.0 0.00 0.69 0.00 95 1015.2
20260510032429 58 0.0 0.0 0.00 0.69 0.00 95 1015.2
20260510031424 58 225 2.0 4.0 0.00 0.69 0.00 95 1015.1
20260510030421 58 248 1.0 4.0 0.00 0.69 0.00 95 1015.1
20260510025418 58 248 1.0 2.0 0.00 0.69 0.00 95 1015.2
20260510024415 58 0.0 0.0 0.00 0.69 0.00 95 1015.3
20260510023533 58 0.0 2.0 0.00 0.69 0.00 95 1015.2
20260510022508 58 0.0 0.0 0.00 0.69 0.00 95 1015.4
20260510021548 58 270 0.0 2.0 0.00 0.69 0.00 95 1015.4
20260510020502 59 0.0 0.0 0.00 0.69 0.00 95 1015.3
20260510015519 59 270 1.0 2.0 0.00 0.69 0.00 95 1015.2
20260510014456 59 270 1.0 2.0 0.00 0.69 0.00 95 1015.1
20260510013512 59 270 1.0 2.0 0.00 0.69 0.00 95 1015.2
20260510012449 59 270 1.0 2.0 0.00 0.69 0.00 94 1015.2
20260510011506 59 248 2.0 2.0 0.00 0.69 0.00 94 1015.3
20260510010443 59 208 2.0 4.0 0.00 0.69 0.00 94 1015.5
20260510005501 59 253 3.0 4.0 0.00 0.69 0.00 94 1015.6
20260510004436 60 263 2.0 4.0 0.00 0.69 0.00 93 1015.8
20260510003433 60 248 2.0 2.0 0.00 0.69 0.00 93 1015.7
20260510002451 60 257 3.0 4.0 0.00 0.69 0.00 93 1015.9
20260510001426 60 255 2.0 4.0 0.00 0.69 0.00 93 1016.0
20260510000444 61 270 2.0 2.0 0.00 0.69 0.00 93 1015.9
20260509235420 61 270 3.0 4.0 0.00 0.69 0.00 92 1015.9
20260509234418 61 234 3.0 4.0 0.00 0.69 0.00 92 1016.0
20260509233513 61 270 3.0 4.0 0.00 0.69 0.00 91 1016.0
20260509232510 61 250 2.0 4.0 0.00 0.69 0.00 91 1016.2
20260509231507 61 270 3.0 4.0 0.00 0.69 0.00 91 1016.2
20260509230504 61 225 2.0 2.0 0.00 0.69 0.00 90 1016.2
20260509225501 62 203 2.0 2.0 0.00 0.69 0.00 90 1016.3
20260509224457 62 203 1.0 2.0 0.00 0.69 0.00 90 1016.2
20260509223454 61 0.0 0.0 0.00 0.69 0.00 90 1016.2
20260509222452 62 225 1.0 2.0 0.00 0.69 0.00 90 1016.3
20260509221448 61 0.0 0.0 0.00 0.69 0.00 89 1016.3
20260509220445 62 255 2.0 4.0 0.00 0.69 0.00 89 1016.7
20260509215441 62 270 2.0 4.0 0.00 0.69 0.69 88 1016.7
20260509214438 62 270 2.0 4.0 0.00 0.69 0.69 87 1016.8
20260509213435 62 158 1.0 2.0 0.00 0.69 0.69 87 1016.5
20260509212433 62 158 1.0 2.0 0.00 0.69 0.69 87 1016.3
20260509211449 62 0.0 0.0 0.00 0.69 0.69 86 1016.2
20260509210425 62 135 2.0 2.0 0.00 0.69 0.69 86 1015.9
20260509205423 62 120 2.0 4.0 0.00 0.69 0.69 86 1016.1
20260509204420 62 131 2.0 4.0 0.00 0.69 0.69 86 1016.1
20260509203417 62 139 1.0 4.0 0.00 0.69 0.69 85 1016.1
20260509202514 62 0.0 0.0 0.00 0.69 0.69 85 1016.0
20260509201509 62 135 1.0 2.0 0.00 0.69 0.69 85 1015.8
20260509200528 63 128 2.0 4.0 0.00 0.69 0.69 84 1015.7
20260509195503 63 141 1.0 4.0 0.00 0.69 0.69 84 1015.5
20260509194500 63 158 0.0 2.0 0.00 0.69 0.69 84 1015.3